Location: Fountain Hills
(33.6120°N, 111.7170°W)
Time: 16:05:22
(UTC-07:00)

Hamsat - Visible Passes

Search period start: 04 May 2016 00:00
Search period end: 14 May 2016 00:00
Orbit: 586 x 621 km, 97.6° (Epoch: 03 May)

Date Brightness Start Highest point End Pass type
(mag) Time Alt. Az. Time Alt. Az. Time Alt. Az.
04 May ? 03:58:07 10° ENE 03:59:33 11° E 04:00:59 10° ESE visible
05 May ? 04:09:05 10° NE 04:11:47 16° E 04:14:29 10° SE visible
06 May ? 04:20:36 10° NE 04:24:00 23° E 04:27:23 10° SSE visible
07 May ? 04:32:22 10° NE 04:36:12 32° E 04:40:01 10° SSE visible
08 May ? 04:44:17 10° NNE 04:48:22 45° E 04:52:29 10° S visible
09 May ? 04:56:17 10° NNE 05:00:32 65° E 05:04:48 10° S visible
12 May ? 03:59:06 10° ENE 04:00:55 12° E 04:02:46 10° ESE visible
13 May ? 04:10:15 10° NE 04:13:09 18° E 04:16:03 10° SE visible
